Wind_Speed
2 2 3 4 4 4 4 3 3 3 3 3 3 4 4 4 5 5 6 6 6 7 7 7 7 6 6 6 6 6 6 7 7 7 7 7 8 8 8 8 8 8 8
1 1 2 3 3 3 3 3 2 2 2 2 3 3 3 4 4 5 5 5 5 6 6 6 5 5 6 6 6 6 6 7 7 7 8 8 8 8 8 9 9 9 9
1 1 2 2 3 3 3 3 2 2 2 2 2 2 2 3 3 4 4 5 5 5 5 4 5 5 5 5 5 6 6 6 7 7 8 8 8 8 9 9 9 9 9
1 2 3 3 3 3 3 3 2 2 2 2 1 1 2 2 3 3 3 3 3 3 3 4 4 4 5 5 5 5 6 6 6 7 7 8 8 8 8 9 9 9 9
1 2 4 4 4 4 4 3 3 2 2 1 1 0 1 1 2 2 2 2 2 2 2 3 3 3 4 4 4 4 5 5 6 6 7 7 7 7 8 8 8 8 8
1 2 4 5 5 5 5 4 3 3 2 2 2 1 1 1 1 1 1 0 1 1 1 2 2 2 2 3 3 4 5 5 5 6 6 6 6 7 7 7 7 7 7
1 2 4 5 6 6 6 6 5 4 3 3 3 2 2 1 1 1 1 1 0 0 1 1 1 1 1 2 3 3 4 4 5 4 4 5 5 5 6 6 6 6 6
2 2 5 6 6 7 7 7 6 5 4 4 4 3 3 2 2 1 1 1 1 1 1 0 1 1 1 2 2 3 3 3 3 3 3 4 4 4 5 5 5 5 5
3 3 5 6 7 8 8 8 7 6 6 5 4 4 4 3 2 2 2 1 1 1 1 0 0 1 2 2 2 2 2 2 3 3 3 3 3 3 4 4 4 4 4
4 4 5 6 7 8 8 8 8 7 6 6 5 4 4 4 3 2 2 2 2 2 1 1 0 1 2 2 2 2 2 2 2 1 2 2 2 2 3 3 3 3 3
5 5 6 7 7 8 9 9 9 8 7 7 6 5 5 4 4 3 3 2 2 2 2 1 1 1 2 2 2 2 2 2 2 1 1 1 1 2 2 3 2 2 3
6 6 7 8 8 9 10 10 9 9 8 8 7 6 6 5 5 4 4 3 3 3 2 2 2 2 2 2 2 2 2 1 1 0 1 1 1 1 2 2 1 2 2
7 7 8 9 10 10 10 11 10 10 9 9 9 7 7 7 6 5 5 5 4 4 3 3 3 2 2 2 2 3 2 2 1 0 1 1 1 1 1 1 1 1 1
7 6 7 9 9 10 11 11 11 11 11 11 10 9 7 7 7 7 7 6 5 5 4 3 3 3 3 3 3 3 3 3 2 1 1 0 1 1 1 1 1 1 1
7 8 8 9 10 11 12 11 11 11 12 12 12 10 9 8 8 8 8 7 6 5 5 4 4 4 4 3 3 4 4 4 3 2 1 1 1 2 2 2 2 2 2
8 9 9 9 11 12 12 12 12 12 12 12 12 12 11 10 10 9 8 8 7 6 6 5 5 5 5 4 4 3 3 3 3 3 2 2 2 3 3 3 2 1 1
9 10 10 10 11 13 13 13 12 12 12 12 13 13 12 11 11 10 9 9 8 7 7 7 6 6 6 5 5 5 4 4 3 3 3 3 3 3 3 2 2 2 2
9 10 10 10 11 12 13 14 13 13 13 13 12 13 13 12 11 10 10 9 9 8 8 7 7 7 6 6 5 5 4 4 3 3 3 3 3 2 2 2 2 2 3
10 10 11 10 11 12 12 13 14 14 15 14 13 13 13 13 12 11 10 9 9 9 9 8 8 8 7 6 5 4 4 4 3 3 3 3 2 2 1 1 1 2 2
11 12 11 11 12 13 13 13 14 15 15 15 13 13 14 13 13 12 11 10 9 9 9 8 8 8 7 6 5 5 4 4 3 3 2 2 1 1 1 1 2 2 1
11 11 12 12 13 13 14 14 15 15 16 15 14 14 14 14 13 13 12 11 10 10 10 9 9 8 7 6 6 5 5 4 4 2 2 1 1 0 0 1 2 2 2
12 12 13 13 13 14 14 15 16 16 16 15 15 14 15 15 15 14 14 13 12 11 11 10 9 9 8 7 7 6 5 4 4 3 2 2 1 1 0 1 1 1 2
12 13 13 13 13 14 14 15 15 16 16 15 14 14 15 16 15 14 14 14 13 12 12 11 10 10 9 8 7 6 6 5 5 3 2 2 1 0 0 1 1 1 1
13 13 12 13 13 14 15 13 14 15 16 15 15 16 15 15 15 15 14 14 13 13 12 12 12 11 10 8 8 7 7 6 5 5 3 2 1 1 0 1 1 1 1
12 11 11 11 11 12 13 13 14 16 16 16 16 17 16 16 15 16 15 15 14 14 13 13 13 12 11 10 10 9 8 7 6 6 5 3 2 1 1 1 1 1 2
11 10 10 10 10 11 12 12 13 15 16 16 16 16 17 16 16 15 15 15 16 15 15 14 13 13 13 12 11 10 9 8 7 6 6 5 4 3 3 3 3 3 3
Wind_Direction
100 117 125 126 130 131 126 124 119 122 124 121 113 114 116 114 114 111 113 114 115 114 114 114 111 109 105 100 95 92 90 88 87 86 85 86 90 88 87 82 83 83 85
133 157 162 153 148 145 139 144 143 136 129 125 116 110 112 109 107 110 113 114 111 110 112 112 108 105 107 103 98 93 92 91 88 88 89 91 91 89 87 84 82 83 84
198 200 205 192 174 162 156 156 158 151 136 127 120 107 101 96 99 108 111 109 110 111 109 108 104 104 105 103 101 98 96 93 89 91 94 92 91 88 87 84 83 85 86
212 208 213 209 194 182 175 166 169 169 163 159 138 113 103 98 95 110 106 103 102 109 109 105 102 104 105 105 102 101 97 92 91 93 96 93 91 89 85 84 85 89 90
285 231 221 215 209 202 192 186 191 193 188 193 182 157 113 109 109 114 116 100 97 103 106 101 99 103 104 104 100 99 98 95 94 95 95 91 91 89 88 87 89 90 89
277 246 238 225 218 214 205 199 206 212 214 223 233 233 207 181 172 179 186 137 92 90 93 93 93 97 101 102 101 98 100 93 94 92 94 95 93 90 92 92 93 91 89
294 247 239 235 228 223 217 213 216 221 229 237 245 244 231 222 220 245 260 278 294 23 71 74 84 87 101 111 110 105 100 91 90 90 92 95 95 93 95 94 95 93 89
318 250 238 236 228 229 228 224 223 223 229 237 247 251 245 241 235 251 268 278 294 307 326 35 98 131 128 127 120 116 112 102 88 86 91 92 96 97 97 92 91 91 90
308 254 236 234 230 231 231 229 228 226 231 235 240 249 247 241 241 256 269 287 299 305 301 305 110 139 141 132 127 113 108 98 92 89 85 87 92 98 94 87 86 85 88
291 265 244 235 233 231 229 230 230 229 234 234 235 244 247 245 244 255 260 277 297 302 293 275 182 154 149 144 144 133 122 110 102 98 79 81 80 87 86 87 83 89 87
285 267 248 241 234 230 229 228 226 228 233 234 234 239 243 248 251 255 255 270 284 289 287 275 233 186 165 161 164 162 143 130 101 102 77 96 89 84 80 84 84 83 79
281 269 254 244 238 234 231 230 228 229 233 234 231 236 238 245 251 251 257 265 274 277 273 261 240 226 198 193 197 192 177 159 139 97 57 99 89 75 78 80 74 73 73
279 270 258 254 248 237 236 233 230 229 229 230 227 233 236 242 248 250 258 265 267 266 259 254 244 235 224 219 212 212 208 207 205 234 347 64 63 40 38 44 45 44 47
278 271 258 253 249 240 237 236 233 230 229 229 226 229 233 239 246 251 257 259 263 260 255 251 248 241 228 221 217 221 226 227 237 264 285 301 344 336 336 349 346 325 315
277 273 267 256 250 244 241 238 236 233 231 229 228 232 236 239 245 249 249 251 256 255 252 247 248 241 225 228 234 241 237 243 246 252 267 287 317 318 323 320 310 304 296
276 271 265 261 248 244 241 238 235 234 232 233 233 234 236 240 244 247 247 246 247 250 248 244 243 238 230 231 234 237 232 235 243 253 271 272 289 305 304 309 305 292 291
275 267 266 260 248 242 238 235 237 235 235 237 235 235 235 238 241 242 246 243 242 242 244 246 243 235 230 230 233 237 231 238 243 255 273 281 282 286 293 297 297 281 276
276 270 263 260 247 239 234 234 233 233 234 236 236 231 229 233 237 239 242 241 240 239 239 242 236 226 223 229 230 228 232 239 248 259 275 283 280 283 281 290 294 287 284
268 268 266 262 252 242 235 231 230 232 234 236 236 231 227 229 232 234 237 236 236 233 231 231 225 219 221 224 227 228 235 248 250 260 275 279 277 269 278 278 302 309 312
263 265 265 260 255 244 235 232 227 230 232 234 235 232 228 225 226 229 230 230 228 224 223 221 216 214 211 213 218 223 227 232 236 245 255 258 260 264 268 278 308 311 308
274 269 262 258 253 242 236 232 231 232 232 236 235 228 226 224 222 224 224 227 223 220 217 213 208 208 208 210 213 214 219 220 218 211 210 179 122 91 288 294 289 282 286
283 276 264 260 252 244 238 232 229 230 231 235 235 228 225 224 221 222 226 225 221 216 211 209 205 205 208 208 210 212 214 215 205 200 192 178 147 102 355 312 282 290 289
282 275 266 259 249 239 238 234 230 227 229 229 231 226 220 218 218 221 222 220 216 210 206 205 204 204 205 207 210 210 209 201 197 191 179 180 183 206 75 49 45 337 289
279 272 263 252 245 236 235 235 230 226 222 221 222 221 220 218 217 218 219 217 215 211 208 207 205 206 207 209 207 206 206 201 197 193 190 190 173 156 299 356 4 353 300
274 266 257 240 235 237 236 231 226 221 218 220 221 221 220 219 218 216 216 217 214 211 211 210 209 210 213 212 209 206 205 204 206 207 209 214 208 213 240 266 284 301 290
266 256 247 239 236 237 234 227 223 219 218 220 221 220 219 218 215 214 216 215 213 210 210 211 212 214 216 215 212 211 210 211 214 219 224 229 235 242 251 260 283 290 290
Height
5884 5883 5884 5885 5885 5886 5887 5888 5888 5889 5889 5890 5890 5890 5890 5890 5890 5889 5889 5890 5890 5889 5889 5889 5890 5890 5890 5890 5890 5890 5889 5889 5889 5889 5888 5888 5888 5888 5887 5887 5887 5886 5886
5884 5884 5885 5885 5886 5886 5887 5888 5889 5890 5890 5891 5891 5891 5891 5891 5891 5891 5891 5891 5891 5891 5891 5891 5891 5891 5891 5891 5891 5891 5890 5890 5890 5890 5889 5889 5889 5889 5888 5888 5888 5888 5888
5884 5884 5885 5886 5886 5887 5888 5889 5889 5890 5891 5892 5892 5892 5892 5892 5892 5892 5892 5892 5892 5892 5892 5892 5892 5892 5892 5892 5892 5892 5891 5891 5891 5891 5891 5890 5890 5890 5890 5889 5889 5889 5889
5884 5884 5885 5886 5887 5887 5888 5889 5890 5891 5892 5892 5893 5893 5893 5893 5893 5893 5893 5893 5893 5893 5893 5893 5893 5893 5893 5893 5893 5893 5892 5892 5892 5892 5892 5892 5891 5891 5891 5891 5891 5891 5891
5884 5884 5885 5886 5887 5888 5888 5889 5890 5891 5892 5893 5894 5894 5894 5894 5894 5894 5894 5894 5894 5894 5894 5894 5894 5894 5894 5894 5894 5893 5893 5893 5893 5893 5893 5893 5893 5892 5893 5893 5892 5892 5892
5883 5884 5885 5885 5886 5888 5888 5889 5890 5891 5892 5893 5894 5894 5895 5895 5895 5895 5895 5895 5894 5894 5894 5894 5894 5895 5894 5894 5894 5894 5894 5894 5894 5894 5894 5894 5894 5894 5894 5894 5894 5894 5893
5883 5883 5884 5885 5886 5887 5888 5889 5890 5891 5892 5893 5894 5895 5895 5895 5896 5896 5895 5895 5895 5895 5895 5895 5895 5895 5895 5895 5895 5895 5895 5895 5895 5895 5895 5895 5895 5895 5895 5895 5895 5894 5894
5882 5883 5883 5884 5885 5886 5888 5889 5890 5891 5892 5893 5894 5895 5895 5896 5896 5896 5896 5896 5896 5896 5896 5896 5896 5896 5896 5896 5896 5896 5896 5896 5896 5896 5896 5896 5896 5896 5896 5895 5895 5895 5895
5881 5882 5883 5883 5884 5886 5887 5888 5889 5890 5892 5893 5894 5894 5895 5896 5896 5896 5896 5896 5896 5896 5896 5896 5896 5896 5896 5896 5896 5896 5896 5896 5896 5896 5896 5897 5896 5896 5896 5896 5896 5896 5896
5881 5881 5881 5882 5883 5884 5886 5887 5888 5890 5891 5892 5893 5894 5895 5895 5896 5896 5896 5896 5896 5896 5896 5896 5896 5896 5897 5897 5897 5897 5897 5897 5897 5897 5897 5897 5897 5897 5896 5896 5896 5896 5896
5879 5880 5880 5881 5882 5883 5884 5886 5887 5888 5890 5891 5892 5893 5894 5895 5895 5896 5896 5896 5896 5896 5896 5896 5896 5897 5897 5897 5897 5897 5897 5897 5897 5897 5897 5897 5897 5897 5897 5897 5897 5897 5897
5878 5878 5879 5879 5880 5881 5883 5884 5885 5887 5888 5890 5891 5892 5893 5894 5894 5895 5895 5896 5896 5896 5896 5896 5896 5896 5897 5897 5897 5897 5897 5897 5897 5897 5897 5897 5897 5897 5897 5897 5897 5897 5897
5875 5876 5876 5877 5878 5879 5881 5882 5883 5885 5886 5888 5889 5890 5891 5893 5894 5894 5895 5895 5895 5895 5895 5895 5896 5896 5896 5897 5897 5897 5897 5897 5897 5897 5897 5897 5897 5897 5897 5897 5897 5897 5896
5873 5873 5874 5875 5876 5877 5878 5880 5881 5883 5884 5886 5887 5889 5890 5891 5892 5893 5894 5894 5894 5894 5895 5895 5895 5895 5896 5896 5896 5897 5897 5897 5897 5897 5897 5897 5896 5897 5896 5896 5896 5896 5896
5871 5871 5872 5873 5874 5875 5876 5877 5879 5880 5882 5884 5885 5887 5888 5889 5891 5892 5892 5893 5893 5893 5894 5894 5894 5895 5895 5896 5896 5896 5896 5896 5897 5897 5897 5896 5896 5896 5896 5895 5895 5895 5895
5869 5869 5869 5870 5871 5872 5873 5875 5876 5878 5879 5881 5883 5885 5886 5888 5889 5890 5891 5891 5892 5893 5893 5893 5894 5894 5895 5895 5896 5895 5896 5896 5896 5896 5896 5896 5896 5896 5895 5895 5894 5894 5894
5866 5867 5867 5867 5868 5869 5871 5872 5874 5875 5877 5878 5880 5882 5884 5885 5887 5888 5889 5890 5891 5892 5892 5892 5893 5893 5894 5895 5895 5895 5895 5896 5895 5895 5895 5895 5895 5895 5895 5894 5894 5894 5894
5863 5864 5864 5865 5865 5866 5868 5869 5871 5872 5874 5875 5877 5879 5881 5883 5884 5886 5887 5888 5889 5890 5891 5891 5892 5893 5893 5894 5895 5895 5895 5895 5895 5895 5895 5895 5894 5894 5894 5894 5893 5893 5893
5860 5861 5861 5861 5862 5863 5865 5866 5868 5869 5871 5873 5875 5877 5878 5880 5882 5884 5885 5886 5887 5888 5889 5890 5891 5892 5893 5893 5894 5894 5895 5895 5895 5895 5895 5894 5894 5894 5893 5893 5893 5892 5892
5856 5857 5858 5858 5859 5860 5861 5863 5864 5866 5868 5869 5872 5874 5876 5878 5880 5881 5883 5884 5885 5887 5888 5889 5890 5891 5892 5893 5893 5894 5894 5894 5894 5894 5894 5893 5893 5893 5892 5892 5892 5892 5891
5853 5853 5854 5854 5855 5856 5858 5859 5861 5863 5864 5866 5868 5870 5872 5875 5877 5879 5881 5882 5884 5885 5886 5887 5889 5890 5891 5892 5893 5893 5894 5894 5894 5894 5893 5893 5892 5892 5892 5892 5891 5891 5891
5850 5850 5850 5850 5851 5852 5854 5855 5857 5859 5861 5863 5865 5867 5869 5872 5874 5876 5878 5880 5882 5883 5885 5886 5888 5889 5890 5891 5892 5892 5893 5894 5893 5893 5893 5892 5892 5891 5891 5891 5890 5890 5890
5847 5847 5847 5847 5847 5849 5850 5852 5854 5856 5858 5860 5862 5864 5866 5869 5871 5873 5875 5877 5879 5881 5883 5884 5886 5888 5889 5890 5891 5892 5892 5892 5892 5893 5892 5892 5892 5891 5891 5890 5890 5889 5889
5844 5843 5842 5843 5844 5845 5847 5849 5851 5853 5855 5857 5859 5861 5863 5866 5868 5870 5872 5875 5877 5879 5881 5883 5884 5886 5887 5888 5889 5890 5891 5891 5892 5892 5892 5892 5891 5891 5891 5890 5890 5889 5889
5840 5839 5839 5839 5841 5842 5844 5846 5848 5850 5851 5854 5856 5858 5860 5862 5865 5867 5870 5872 5874 5877 5879 5881 5882 5884 5885 5887 5888 5889 5889 5890 5891 5891 5891 5891 5891 5891 5890 5890 5889 5889 5888
5836 5836 5836 5837 5838 5839 5841 5843 5845 5847 5848 5851 5853 5855 5857 5859 5862 5864 5867 5869 5872 5874 5876 5878 5880 5881 5883 5884 5886 5887 5888 5889 5889 5890 5890 5890 5890 5890 5889 5889 5888 5888 5887